SES-9

Last updated on Jan. 18, 2020, 4:38 a.m. UTC

1 41380U 16013A   20017.53790105 -.00000349  00000-0  00000-0 0  9994
2 41380   0.0480 261.7292 0000927 122.7408  33.8836  1.00269571 13940
UTC
Height (km)
Latitude
Longitude
Inclination
Orbital Period
UTC large
Height (km)
Speed (km/s)
/
Latitude / Longitude
Inclination (degrees)
Orbital Period (minutes)
Azimuth
Elevation
Range (km)
Doppler Factor
iOS Compass Heading
iOS Angle

Next 30 passes for location: Hong Kong

Rise time Rise Azimuth (degrees) Set time Set Azimuth (degrees) Duration Max altitude (degrees)

No matching passes for this satellites